Location: Zagreb
(45.8000°N, 16.0000°E)
Time: 02:45:46
(UTC+01:00)

Courier 1B - Pass Details

Date: 11 October 2020
Orbit: 963 x 1209 km, 28.3° (Epoch: 25 October)

Event Time Altitude Azimuth Distance (km) Brightness Sun altitude
Rises 20:42:08 0° 241° (WSW) 3,961 11.3 -25.9°
Reaches altitude 10° 20:45:41 10° 226° (SW) 3,042 10.4 -26.5°
Maximum altitude 20:50:54 20° 182° (S) 2,408 9.4 -27.4°
Enters shadow 20:51:18 20° 178° (S) 2,415 9.3 -27.4°
